Volver al catálogo

IRIDIUM 33 DEB

ActivoPO
NORAD 35488·DEBRIS·🇺🇸 United States

Lanzado Sep 14, 1997 desde Baikonur Cosmodrome

Loading…

Próximos Pases (próximas 24 horas)

TLE

ActualizadoSource: Space-Track

Época: Sep 14, 2026, 04:58 UTC

1 35488U 97051QJ  26257.20757144  .00005470  00000-0  58424-3 0  9994
2 35488  86.3297 173.3073 0025186 135.9366 224.3873 14.88384020923577

Sigue IRIDIUM 33 DEB en tiempo real con AllMySat

Download on the App Store